Wind_Speed
22 22 22 22 23 23 23 24 25 26 27 28 29 30 31 31 32 33 34 34 35 36 36 36 36 36 36 36 35 35 34 33 32 31 31 29 28 27 26 25 24 23 22
24 24 24 24 25 25 25 26 27 28 29 30 31 32 33 34 34 35 36 37 37 38 38 39 39 39 38 38 38 37 37 36 35 34 33 32 31 30 29 28 27 26 25
26 26 26 27 27 27 27 28 29 30 31 32 34 35 36 36 37 38 38 39 39 40 40 41 41 41 41 41 40 40 39 39 38 37 36 35 34 33 32 31 30 29 28
28 28 28 29 29 29 30 31 32 33 34 35 37 38 38 39 40 40 41 41 42 42 43 43 43 43 43 43 42 42 41 41 41 40 39 38 37 36 35 34 33 32 31
30 30 30 31 31 32 33 34 35 36 37 38 40 40 41 42 43 43 43 44 45 45 45 45 44 44 44 44 44 44 43 43 43 42 42 41 40 39 38 37 36 35 34
32 32 32 33 34 34 35 37 38 39 40 41 42 42 43 44 44 45 45 46 46 46 46 46 46 46 46 45 45 45 45 45 45 44 44 43 42 42 41 40 39 38 37
35 35 34 35 36 37 38 39 40 41 42 44 45 45 45 45 45 46 46 46 46 46 46 47 47 47 47 47 47 46 46 46 46 46 46 45 45 44 43 43 42 41 40
37 37 37 38 39 40 41 42 43 44 44 46 47 47 46 45 45 46 46 45 45 46 47 48 48 48 49 49 49 49 48 48 48 47 48 48 48 47 46 45 44 43 43
39 39 40 40 41 42 43 44 45 46 47 48 48 49 49 47 46 45 44 45 45 46 47 48 49 50 51 51 51 51 51 51 51 51 50 49 50 49 48 47 46 46 46
41 42 42 43 43 44 45 46 47 48 49 49 49 49 49 48 47 45 44 44 45 46 47 48 49 51 51 52 52 53 54 53 54 54 53 53 53 52 51 50 49 48 48
43 44 44 45 45 46 47 48 49 49 50 50 49 49 48 48 47 46 45 44 46 47 48 49 50 50 51 52 53 54 54 55 55 55 55 56 56 54 52 51 50 50 49
45 45 46 46 46 47 48 49 49 50 50 49 48 48 48 47 46 46 45 45 46 47 48 49 49 50 52 53 54 54 54 53 54 55 56 55 56 56 55 52 50 48 47
46 46 47 47 47 48 49 49 49 49 48 48 47 47 46 46 46 46 46 46 46 46 46 47 48 50 52 52 52 52 52 51 51 52 53 52 53 54 52 51 50 49 49
47 47 47 47 48 49 49 49 48 47 47 47 46 45 45 44 45 46 46 46 46 45 44 44 46 48 49 49 48 47 48 47 48 49 49 48 49 50 50 50 48 47 47
47 47 48 49 49 49 48 47 46 46 46 45 44 44 44 43 44 45 46 45 44 43 42 43 44 45 45 45 44 44 42 41 41 41 41 43 44 45 46 47 46 44 43
48 48 48 49 48 47 46 45 45 44 44 43 43 43 43 43 44 44 44 43 42 41 40 40 41 41 41 40 40 38 37 36 34 33 35 35 37 39 39 40 44 43 43
48 48 47 47 46 45 44 44 43 43 43 43 43 43 43 43 43 43 42 41 41 40 39 38 38 38 37 37 35 33 31 30 29 29 29 30 32 33 35 36 38 39 40
46 46 45 45 44 43 42 42 42 42 42 42 41 41 42 42 41 41 40 39 38 37 37 36 36 36 35 33 31 30 28 27 25 24 25 27 28 31 34 35 37 39 41
45 44 43 42 41 40 40 40 40 40 40 40 39 40 40 40 39 39 38 37 36 36 35 35 35 34 33 32 30 29 27 26 25 25 25 26 28 30 31 34 36 37 39
42 41 40 38 38 38 38 38 38 38 38 38 38 38 38 38 37 36 35 35 34 34 34 34 33 32 31 31 30 29 28 27 26 26 27 28 29 31 32 33 36 38 40
39 38 37 36 36 36 36 36 36 36 36 36 36 36 36 36 35 34 34 34 34 34 34 33 32 32 32 31 31 31 30 29 29 29 29 30 31 32 34 35 37 39 41
35 35 34 34 34 34 34 34 34 34 34 34 35 35 34 34 33 33 34 33 33 33 33 33 33 33 33 33 32 32 32 32 32 32 33 34 35 36 37 38 40 42 43
33 32 32 31 31 31 31 31 32 32 33 33 33 33 33 33 32 33 33 33 33 33 33 33 34 34 34 34 34 34 35 35 35 36 36 38 39 40 41 42 44 45 46
30 29 29 29 28 28 29 30 30 30 31 32 32 32 31 31 32 33 33 33 33 34 34 34 35 35 35 36 36 37 37 38 39 39 40 42 43 44 45 46 47 48 49
27 27 27 26 27 27 27 28 28 29 30 31 31 31 31 31 32 33 33 34 34 34 35 35 36 37 37 37 38 39 39 40 41 43 44 45 47 48 49 50 50 51 52
25 25 25 25 25 26 26 27 28 29 30 30 31 31 32 32 33 33 34 34 35 35 36 37 38 38 39 39 40 41 42 44 45 46 47 48 49 50 51 52 53 54 55
Wind_Direction
288 290 293 295 297 300 302 303 304 305 305 306 306 306 306 306 305 304 303 303 301 300 299 297 296 295 293 291 289 287 285 283 282 279 277 275 273 272 271 270 269 268 267
285 289 291 294 296 298 300 301 302 303 303 303 304 304 304 304 303 303 302 301 300 299 299 298 296 295 293 291 289 287 285 283 281 279 277 274 272 271 270 269 267 266 266
282 286 289 291 294 297 298 299 300 300 301 301 302 302 302 302 302 301 301 301 300 299 298 297 296 295 293 291 289 287 285 284 282 280 278 275 272 271 269 268 267 265 264
280 283 286 289 292 294 296 297 298 299 299 299 299 300 300 300 300 300 300 300 299 299 298 297 296 295 294 292 290 288 285 283 282 280 278 276 273 271 269 267 266 265 264
278 280 283 286 289 291 293 294 295 297 297 297 298 298 299 299 300 300 300 299 299 299 298 297 296 295 294 292 290 288 285 283 281 279 277 275 273 271 269 267 265 264 264
276 279 281 284 286 289 290 292 293 294 295 295 296 297 298 299 300 300 299 299 299 298 297 297 296 295 294 292 291 288 286 283 280 278 277 275 273 270 268 267 265 264 263
275 277 280 282 285 287 288 289 290 292 293 293 294 296 297 298 299 298 298 299 298 298 297 297 296 295 294 293 291 289 287 283 280 277 275 274 272 270 268 266 265 264 262
273 276 278 281 283 285 287 288 289 290 292 293 294 295 296 297 297 298 298 298 298 298 298 297 296 294 293 292 291 289 286 283 280 276 273 272 271 269 267 266 265 263 262
272 275 278 280 282 284 286 287 289 291 292 293 295 296 296 296 296 297 297 298 298 298 298 298 296 295 294 291 290 288 285 282 279 276 273 270 268 267 266 265 264 264 263
272 275 277 280 282 284 286 287 289 291 292 293 294 296 297 297 297 297 297 297 298 298 299 298 297 296 294 292 290 288 285 281 279 275 271 269 267 266 264 264 263 263 262
273 275 277 280 282 284 286 287 289 290 292 293 294 295 296 297 297 298 298 298 299 299 299 298 297 297 295 293 290 289 286 281 278 274 271 269 266 264 262 261 262 262 262
273 275 278 280 282 284 286 287 289 290 292 293 294 295 296 296 297 298 299 300 300 300 299 299 299 298 296 294 291 289 287 283 278 274 272 270 267 264 261 260 261 262 263
272 275 278 280 282 284 286 287 289 290 291 292 293 295 295 296 297 298 299 300 300 301 300 300 300 300 299 297 294 290 287 282 278 275 272 269 266 264 263 259 260 261 261
273 276 278 281 283 285 286 288 289 290 291 292 293 294 295 297 297 298 300 300 301 301 301 301 302 303 303 301 298 295 290 284 280 276 272 269 265 262 262 260 260 262 262
274 277 279 282 284 285 286 288 289 290 291 292 293 294 295 297 297 299 300 300 301 302 302 303 305 307 306 305 302 299 295 290 284 280 276 272 266 263 262 262 261 262 264
275 278 280 282 283 285 286 287 289 290 291 292 293 294 295 296 298 299 299 300 301 302 304 306 308 310 311 309 308 305 300 295 290 283 279 274 269 265 262 262 263 265 265
276 278 280 281 283 284 286 287 288 290 291 292 292 293 294 296 297 297 298 299 300 302 304 307 309 312 314 314 312 312 307 301 296 288 284 280 275 269 265 264 265 266 267
276 278 279 281 282 283 285 286 288 289 290 291 292 293 294 296 296 297 298 298 300 302 304 307 310 312 314 316 315 315 313 308 301 295 292 287 281 276 272 270 269 268 269
275 277 279 280 281 283 284 286 288 289 290 291 292 293 294 295 296 296 297 298 300 302 304 307 310 312 313 315 314 314 312 310 305 298 294 289 284 279 275 273 272 271 271
274 276 277 279 281 283 284 286 288 289 290 291 292 293 294 295 295 296 297 298 300 301 303 306 308 310 312 313 313 313 311 308 304 299 295 291 286 282 279 277 275 273 273
272 274 276 278 280 282 284 285 287 289 290 291 292 293 294 294 295 296 297 298 300 301 303 304 306 308 309 310 310 310 309 307 303 299 295 292 289 285 283 281 279 276 275
271 273 275 277 280 282 283 285 287 289 290 291 293 294 294 295 295 296 297 299 300 301 303 304 305 306 307 308 308 307 307 306 303 301 298 295 292 289 286 284 282 280 279
270 271 274 276 279 281 283 286 288 289 291 292 293 294 295 295 296 297 298 299 300 301 302 303 304 305 305 306 306 305 304 303 301 300 298 296 294 292 290 288 285 283 282
268 270 272 275 279 282 285 288 290 291 292 293 294 295 296 297 297 298 299 299 300 301 302 303 304 304 304 304 304 304 303 302 301 300 298 296 294 293 291 289 286 284 283
267 269 272 275 279 283 286 289 292 293 294 295 295 296 297 297 298 299 299 300 301 301 302 303 304 304 304 304 304 304 303 302 301 300 298 296 294 293 291 289 286 285 284
266 269 272 276 279 283 287 290 292 294 295 295 296 296 297 298 298 300 300 301 301 302 303 303 304 304 304 304 304 304 304 303 302 300 299 297 295 293 292 290 287 286 285
Height
5865 5865 5864 5864 5863 5863 5862 5861 5859 5858 5856 5854 5852 5851 5849 5847 5845 5843 5840 5838 5836 5833 5831 5829 5828 5826 5824 5822 5821 5819 5818 5817 5816 5815 5814 5813 5812 5811 5811 5810 5810 5810 5810
5861 5860 5860 5859 5858 5858 5857 5856 5854 5853 5851 5849 5847 5845 5843 5841 5839 5837 5834 5832 5829 5827 5825 5823 5821 5819 5817 5815 5814 5812 5811 5810 5809 5808 5807 5807 5806 5805 5805 5804 5804 5804 5805
5856 5855 5855 5854 5853 5853 5851 5850 5849 5847 5845 5843 5841 5839 5837 5835 5833 5830 5828 5825 5822 5820 5817 5815 5813 5811 5809 5808 5806 5805 5804 5803 5802 5801 5800 5800 5799 5799 5799 5798 5798 5798 5798
5851 5850 5850 5849 5848 5847 5846 5844 5842 5841 5839 5837 5835 5832 5830 5828 5825 5823 5820 5817 5814 5811 5809 5806 5805 5803 5801 5799 5798 5797 5795 5794 5793 5793 5792 5792 5792 5791 5791 5791 5792 5792 5792
5845 5845 5844 5843 5842 5841 5839 5838 5836 5834 5832 5830 5828 5826 5823 5821 5818 5815 5812 5809 5806 5803 5800 5797 5795 5794 5792 5790 5788 5787 5786 5785 5784 5783 5783 5783 5783 5783 5783 5783 5784 5784 5785
5838 5838 5838 5837 5835 5834 5833 5831 5829 5827 5826 5823 5821 5819 5816 5813 5810 5807 5804 5801 5797 5794 5791 5788 5786 5784 5782 5780 5778 5777 5776 5775 5774 5773 5773 5772 5772 5773 5773 5774 5774 5775 5776
5831 5831 5831 5830 5828 5827 5826 5824 5822 5820 5818 5815 5813 5811 5809 5806 5802 5799 5795 5792 5789 5785 5782 5779 5776 5773 5771 5769 5767 5766 5764 5763 5763 5762 5761 5761 5761 5762 5762 5763 5764 5765 5766
5824 5824 5823 5822 5821 5820 5818 5816 5814 5812 5810 5807 5804 5801 5801 5799 5794 5790 5786 5783 5779 5776 5772 5768 5765 5762 5759 5757 5755 5754 5752 5751 5750 5749 5749 5749 5749 5750 5750 5751 5752 5754 5755
5816 5816 5815 5815 5813 5812 5810 5808 5805 5803 5800 5798 5794 5791 5789 5789 5786 5783 5778 5774 5769 5766 5762 5758 5754 5750 5747 5745 5742 5740 5739 5737 5736 5736 5735 5735 5736 5737 5738 5739 5740 5742 5743
5808 5808 5807 5806 5804 5803 5801 5799 5796 5793 5790 5788 5785 5781 5778 5776 5774 5773 5770 5765 5760 5756 5752 5747 5743 5739 5735 5732 5729 5726 5724 5722 5721 5720 5720 5720 5721 5723 5724 5725 5727 5728 5730
5799 5799 5798 5797 5795 5793 5791 5789 5786 5783 5780 5778 5775 5771 5768 5765 5762 5759 5759 5756 5751 5746 5741 5736 5732 5727 5723 5719 5715 5712 5709 5706 5705 5704 5704 5704 5705 5707 5708 5711 5712 5715 5717
5790 5789 5788 5787 5785 5784 5781 5779 5776 5773 5770 5767 5764 5761 5758 5755 5752 5748 5747 5744 5740 5736 5730 5725 5720 5715 5710 5705 5701 5697 5693 5690 5688 5687 5687 5687 5689 5691 5693 5696 5698 5700 5703
5780 5779 5778 5777 5775 5773 5771 5769 5766 5763 5760 5757 5753 5750 5747 5744 5741 5738 5735 5732 5729 5725 5720 5714 5708 5702 5697 5691 5686 5681 5677 5674 5672 5671 5670 5671 5673 5675 5678 5681 5684 5686 5689
5770 5769 5768 5767 5765 5763 5761 5758 5755 5752 5749 5746 5743 5740 5737 5734 5730 5727 5724 5721 5718 5714 5709 5704 5697 5691 5684 5677 5672 5667 5662 5659 5657 5656 5656 5656 5658 5661 5664 5667 5670 5673 5676
5759 5759 5757 5756 5754 5752 5750 5747 5745 5742 5739 5736 5733 5730 5727 5724 5720 5717 5713 5710 5707 5703 5699 5693 5687 5680 5673 5666 5659 5654 5650 5646 5645 5643 5643 5643 5645 5648 5651 5654 5658 5661 5663
5749 5748 5746 5745 5743 5741 5739 5737 5734 5731 5729 5726 5723 5720 5717 5714 5710 5706 5703 5699 5695 5692 5688 5683 5677 5670 5663 5656 5650 5644 5639 5636 5634 5633 5633 5633 5635 5637 5640 5643 5647 5649 5651
5738 5737 5736 5734 5733 5731 5728 5726 5724 5721 5719 5716 5713 5710 5707 5704 5700 5697 5693 5689 5685 5682 5678 5673 5667 5661 5655 5649 5643 5637 5632 5629 5627 5625 5625 5626 5627 5628 5630 5633 5635 5637 5639
5728 5727 5725 5724 5722 5720 5718 5716 5714 5712 5709 5706 5703 5700 5697 5694 5691 5687 5683 5680 5676 5672 5668 5664 5659 5653 5648 5642 5637 5632 5627 5624 5621 5619 5619 5619 5619 5620 5621 5623 5624 5626 5628
5717 5716 5715 5714 5712 5710 5709 5706 5704 5702 5699 5697 5694 5691 5688 5684 5681 5678 5674 5671 5667 5663 5659 5655 5651 5646 5641 5636 5631 5627 5623 5619 5616 5614 5613 5612 5612 5612 5613 5613 5614 5615 5616
5707 5706 5705 5704 5702 5701 5699 5697 5695 5693 5690 5687 5685 5682 5678 5675 5672 5669 5665 5662 5658 5655 5651 5647 5642 5638 5634 5629 5625 5621 5617 5614 5611 5609 5607 5606 5605 5604 5603 5603 5604 5604 5604
5697 5697 5696 5694 5693 5692 5690 5688 5686 5684 5681 5679 5676 5673 5670 5666 5663 5660 5657 5653 5650 5646 5642 5639 5635 5631 5627 5623 5619 5615 5611 5608 5605 5602 5600 5598 5596 5595 5594 5593 5592 5592 5591
5688 5687 5687 5686 5684 5683 5681 5679 5677 5675 5672 5670 5667 5664 5661 5658 5655 5652 5648 5645 5641 5638 5634 5630 5627 5623 5619 5615 5611 5608 5604 5601 5598 5595 5592 5589 5587 5585 5583 5582 5580 5578 5577
5679 5678 5678 5677 5676 5674 5672 5671 5669 5666 5664 5661 5659 5656 5653 5649 5646 5643 5640 5637 5633 5629 5626 5622 5619 5615 5611 5607 5603 5599 5596 5592 5589 5586 5583 5579 5577 5574 5571 5569 5566 5564 5562
5670 5670 5669 5668 5667 5666 5664 5662 5660 5658 5656 5653 5650 5647 5644 5641 5638 5635 5632 5628 5625 5621 5618 5614 5610 5606 5602 5598 5594 5590 5586 5583 5579 5575 5572 5569 5565 5562 5558 5555 5552 5549 5547
5662 5662 5661 5660 5660 5658 5656 5655 5653 5650 5648 5645 5642 5639 5636 5633 5630 5627 5624 5620 5616 5613 5609 5605 5601 5596 5592 5588 5584 5580 5576 5572 5568 5564 5560 5556 5552 5548 5544 5540 5536 5533 5530
5654 5654 5653 5653 5652 5650 5649 5647 5645 5643 5640 5637 5635 5631 5628 5625 5622 5618 5615 5611 5608 5604 5600 5595 5591 5587 5583 5578 5574 5569 5565 5560 5555 5551 5546 5542 5537 5532 5528 5523 5519 5515 5512